This is the latest recevied weather packets stored in our database for station/object KI5NXU. If no packets are shown the sender has not sent any weather packets the latest 10 day(s).
| Time | Temp. | Humidity | Pressure | Rain* | Wind** | Luminosity | Snow |
|---|---|---|---|---|---|---|---|
| 1777174749 | 23.33° C | 76% | 1004.5 hPa | 0 mm | - | 0 W/m² | - |
| 1777174444 | 25° C | 76% | 1004.2 hPa | 0 mm | - | 0 W/m² | - |
| 1777174140 | 25.56° C | 77% | 1004.3 hPa | 0 mm | - | 0 W/m² | - |
| 1777173836 | 25.56° C | 76% | 1003.9 hPa | 0 mm | - | 0 W/m² | - |
| 1777173536 | 26.11° C | 75% | 1003.8 hPa | 0 mm | - | 0 W/m² | - |
| 1777173231 | 26.11° C | 74% | 1003.6 hPa | 0 mm | - | 0 W/m² | - |
| 1777172928 | 26.67° C | 74% | 1003.3 hPa | 0 mm | - | 0 W/m² | - |
| 1777172626 | 26.11° C | 73% | 1003 hPa | 0 mm | - | 0 W/m² | - |
| 1777172321 | 26.11° C | 73% | 1002.7 hPa | 0 mm | - | 0 W/m² | - |
| 1777172017 | 26.11° C | 73% | 1002.8 hPa | 0 mm | - | 0 W/m² | - |
| 1777171713 | 26.11° C | 74% | 1002.7 hPa | 0 mm | - | 0 W/m² | - |
| 1777171409 | 26.67° C | 74% | 1003.1 hPa | 0 mm | - | 0 W/m² | - |
| 1777171104 | 26.67° C | 74% | 1003 hPa | 0 mm | - | 0 W/m² | - |
| 1777170803 | 26.67° C | 74% | 1002.7 hPa | 0 mm | - | 0 W/m² | - |
| 1777170500 | 26.67° C | 74% | 1003 hPa | 0 mm | - | 0 W/m² | - |
| 1777170196 | 26.67° C | 73% | 1003 hPa | 0 mm | - | 0 W/m² | - |
| 1777169894 | 26.67° C | 73% | 1002.6 hPa | 0 mm | - | 0 W/m² | - |
| 1777169590 | 27.22° C | 71% | 1002.6 hPa | 0 mm | - | 0 W/m² | - |
| 1777169286 | 27.22° C | 70% | 1002.5 hPa | 0 mm | - | 0 W/m² | - |
| 1777168981 | 27.22° C | 70% | 1002.6 hPa | 0 mm | - | 0 W/m² | - |
| 1777168677 | 27.78° C | 69% | 1002.4 hPa | 0 mm | - | 0 W/m² | - |
| 1777168373 | 27.78° C | 69% | 1002.5 hPa | 0 mm | - | 0 W/m² | - |
| 1777168071 | 27.78° C | 69% | 1002.2 hPa | 0 mm | - | 0 W/m² | - |
| 1777167768 | 27.78° C | 68% | 1002.2 hPa | 0 mm | - | 0 W/m² | - |
| 1777167463 | 28.33° C | 67% | 1002 hPa | 0 mm | - | 0 W/m² | - |
* Rain latest hour (hover to see other rain measurements)
** Current wind speed in m/s (hover to see current wind gust speed)